Theta_e
318 318 317 317 317 314 311 313 316 318 318 318 316 315 315 314 314 314 313 313 312 312 311 313 313 311 309 307 306 305 305 304 304 304 304 304 304 304 304 303 303 302 302 302
318 317 316 316 316 315 315 313 313 314 314 315 314 314 316 314 314 314 313 313 312 312 312 312 312 310 308 307 306 305 304 303 303 303 303 303 303 303 303 303 302 302 302 302
320 316 316 317 317 316 316 315 315 315 315 315 317 317 316 314 314 313 312 312 312 311 311 311 311 309 307 306 306 305 303 303 303 303 303 303 302 303 303 302 302 302 302 302
322 317 321 320 316 316 317 317 315 315 316 317 316 314 314 313 313 312 312 312 310 311 311 311 310 308 307 306 305 304 303 303 303 303 303 302 302 302 302 302 302 302 302 302
322 320 320 320 319 315 314 318 316 317 316 315 315 314 312 312 312 311 310 310 311 311 310 310 310 309 307 306 305 305 304 304 304 303 303 302 302 302 302 302 302 302 302 302
319 323 325 323 316 315 316 317 318 316 316 316 313 314 314 313 312 310 312 312 312 311 310 309 309 309 309 307 306 306 306 306 305 304 303 303 303 303 303 302 302 302 302 302
323 322 324 320 314 314 319 321 321 318 317 315 314 313 315 313 312 312 313 313 312 311 310 310 309 309 309 308 307 309 308 307 307 306 305 304 304 303 303 303 303 303 302 302
317 321 324 318 313 316 317 321 320 317 316 316 314 315 315 313 312 312 312 314 314 311 310 310 310 310 310 309 310 309 309 309 308 307 306 305 305 304 303 303 302 302 302 302
319 319 320 313 316 313 315 318 320 318 318 315 314 314 313 312 312 311 313 313 314 313 311 311 310 311 310 310 310 309 310 310 309 307 306 306 305 304 303 303 302 301 301 301
321 320 319 316 314 316 317 315 315 315 315 314 313 313 312 311 311 311 313 313 314 312 311 311 311 311 311 311 310 309 310 310 308 307 306 305 304 303 302 301 301 302 301 301
318 318 317 317 314 315 315 314 314 314 313 313 312 312 312 312 311 312 313 314 313 312 312 311 311 311 311 311 311 310 310 309 307 306 305 303 302 302 301 301 301 301 301 301
321 318 318 318 319 316 314 314 314 314 314 313 312 314 314 315 315 314 312 313 313 313 312 312 312 311 311 311 311 310 308 307 305 304 303 302 302 301 301 300 300 300 299 299
320 319 317 317 316 315 315 315 314 314 314 314 315 316 316 315 314 313 313 313 312 312 312 311 311 311 311 311 310 310 308 305 303 302 302 301 300 300 299 299 298 298 298 299
315 314 316 317 315 315 315 315 316 317 317 317 317 316 315 312 312 312 312 312 312 311 311 311 310 310 310 309 309 308 306 303 302 301 300 299 299 298 298 297 297 297 298 298
314 314 315 315 315 316 316 316 315 315 315 314 315 314 314 312 312 313 313 313 312 311 310 310 309 308 307 307 307 305 301 300 299 299 298 298 298 297 297 297 297 297 297 297
316 315 314 315 315 315 314 314 314 314 313 313 311 312 313 313 312 312 311 311 310 308 309 308 307 307 306 305 303 301 299 298 298 298 297 297 297 297 297 296 296 296 296 296
314 315 314 314 314 313 313 312 311 310 310 309 309 311 311 310 310 309 309 310 309 309 307 306 305 304 303 301 300 298 298 298 297 296 296 296 297 297 296 295 294 294 295 295
313 313 313 313 313 312 311 310 309 309 309 309 310 309 308 307 307 307 308 309 308 307 305 304 302 301 300 299 298 297 298 297 297 296 296 296 295 294 293 293 292 292 292 292
311 312 311 310 309 307 307 307 307 307 307 306 305 305 306 307 307 307 308 307 306 302 303 302 300 299 298 297 297 297 297 297 296 296 295 295 294 292 292 292 292 292 292 291
305 305 304 304 304 303 302 302 302 302 302 303 303 302 302 304 305 305 306 305 305 304 303 301 299 297 297 298 297 297 296 296 295 295 294 293 292 292 292 292 292 292 292 292
302 301 302 301 301 302 302 302 302 301 302 302 301 301 301 302 302 303 303 300 303 302 301 300 298 297 297 297 295 295 296 295 294 293 293 292 293 293 292 292 292 291 291 291
301 301 301 301 300 300 302 302 302 301 301 301 302 301 301 301 301 302 303 302 302 301 300 299 297 297 297 295 295 295 295 294 293 292 292 292 292 292 291 292 291 290 291 290
300 301 301 301 301 301 301 301 302 302 302 302 302 301 300 300 300 300 298 301 301 300 299 297 297 296 295 295 294 294 293 292 292 291 291 290 291 291 291 290 290 290 289 289
301 301 301 301 301 301 299 301 302 302 302 302 302 301 301 299 300 301 301 301 300 299 297 297 296 295 294 293 293 292 291 291 291 290 290 290 290 290 290 289 289 289 288 289
300 300 300 299 298 298 300 301 301 301 301 302 302 301 301 300 300 300 300 299 298 297 296 295 295 294 293 292 292 291 291 290 290 290 289 289 290 290 289 289 288 288 288 288
300 299 299 299 299 299 300 300 300 301 301 301 301 301 300 300 299 299 298 297 296 295 295 294 294 293 292 291 291 290 290 290 289 289 289 289 289 289 288 288 287 288 288 288
300 300 299 299 299 300 300 300 300 300 300 301 300 301 300 299 298 297 296 296 295 294 294 293 292 292 291 290 290 290 290 289 289 289 289 289 288 288 288 287 287 287 288 288
Wind_Speed
7 2 5 5 6 11 11 11 6 4 8 13 9 9 8 6 6 6 7 7 7 8 8 11 7 10 10 11 12 13 14 15 17 18 20 22 25 26 26 28 30 32 33 33
3 7 6 9 9 10 16 15 17 16 22 18 14 8 5 7 6 6 7 8 7 7 10 7 8 9 9 11 12 11 12 14 14 15 17 20 21 22 24 26 27 29 31 34
2 6 3 8 11 18 8 8 19 13 20 10 7 4 5 7 7 7 8 7 7 7 8 9 10 10 11 11 10 12 12 12 13 14 15 17 18 21 23 25 26 29 33 34
3 5 4 7 4 3 6 10 13 12 11 7 4 7 8 8 8 8 7 6 6 8 9 10 10 12 12 12 12 12 12 13 13 14 15 16 18 21 21 22 25 28 31 33
4 5 7 9 5 7 7 8 17 19 18 9 7 1 8 10 8 8 7 8 10 12 11 11 13 15 13 13 13 13 15 15 15 16 17 17 19 21 22 23 25 28 30 32
3 4 8 3 2 3 4 7 9 16 16 8 7 3 6 6 6 8 11 12 13 15 13 14 16 15 16 17 16 19 19 18 16 16 18 19 19 20 21 23 25 26 29 31
6 5 6 9 7 4 5 7 2 6 7 8 7 8 5 7 6 12 13 15 15 16 18 21 18 17 21 21 23 25 20 19 19 19 20 20 19 19 20 22 23 25 26 30
3 4 10 8 4 9 6 2 3 4 4 7 8 8 6 8 7 8 11 16 19 18 22 25 21 20 27 26 33 25 22 24 24 22 21 20 19 19 20 21 23 26 26 28
12 9 5 11 7 14 2 2 3 2 4 4 7 7 8 8 8 9 14 17 21 20 24 25 24 25 30 38 33 28 26 29 28 24 22 20 19 20 20 21 23 26 22 21
5 9 8 9 9 4 3 7 5 5 6 6 8 8 9 9 8 8 15 16 23 22 21 25 29 29 34 36 34 28 31 32 29 25 23 20 18 18 20 22 22 22 21 20
8 7 6 6 10 7 11 10 8 8 9 9 9 12 11 11 9 11 16 20 22 21 21 25 29 31 31 34 35 33 34 34 28 23 21 19 19 18 19 23 22 22 24 22
8 7 10 8 2 8 9 9 9 10 8 9 9 10 8 12 15 16 18 22 21 23 26 27 26 28 31 36 35 36 29 28 24 20 18 16 16 18 19 21 21 23 24 26
3 5 7 8 6 5 7 7 8 8 9 11 14 17 16 14 19 20 20 21 22 26 28 27 28 31 34 35 29 33 29 20 18 17 16 15 15 15 17 22 21 21 22 20
5 7 6 6 6 6 8 8 15 17 20 18 17 20 21 16 19 19 16 24 30 31 27 28 31 34 33 26 27 27 23 20 18 17 16 15 15 16 15 16 15 19 20 16
16 15 14 11 11 14 17 17 17 16 12 11 19 15 16 11 12 18 25 26 26 26 23 24 29 30 24 21 21 20 19 18 16 14 12 13 13 14 14 17 17 20 23 20
21 16 14 17 16 16 13 14 15 14 14 11 7 12 17 20 21 23 26 27 21 16 23 21 22 24 21 18 18 16 16 14 12 11 11 11 12 14 13 14 17 18 16 16
15 17 13 13 14 14 12 8 7 5 5 7 9 18 20 20 20 20 23 24 23 21 21 22 25 20 17 16 16 16 13 11 10 9 10 11 10 8 10 10 14 15 16 17
16 15 14 14 10 9 8 7 6 7 5 12 17 16 15 11 11 16 22 23 22 20 19 21 18 16 14 14 14 12 11 9 9 10 9 8 9 9 11 10 10 13 16 17
13 13 11 9 4 2 3 4 6 11 14 16 16 12 18 20 22 24 25 22 18 14 24 20 17 15 14 12 12 11 9 7 9 8 7 6 8 11 11 11 13 15 17 17
5 5 6 5 5 4 4 9 10 11 15 15 17 16 14 19 23 23 23 20 22 23 21 16 15 14 12 12 12 9 7 8 8 6 6 8 10 10 9 11 13 14 15 16
5 5 3 2 2 5 7 9 10 10 14 15 15 13 16 21 23 24 17 5 17 16 15 15 14 16 15 12 11 9 7 6 6 6 8 9 9 9 10 12 13 14 15 16
3 2 3 4 4 6 8 8 12 14 16 16 16 17 20 18 21 21 21 17 13 13 14 14 15 14 13 11 8 8 7 6 6 7 6 6 9 9 12 12 15 16 17 17
3 3 2 3 3 7 11 13 14 14 15 16 17 17 17 18 19 11 4 10 9 13 12 14 15 14 13 11 10 9 8 7 6 4 5 7 9 11 13 14 16 17 18 19
2 0 3 7 9 10 7 15 16 18 20 21 21 19 19 16 18 14 10 7 12 13 14 14 13 12 11 11 10 9 8 6 5 4 6 7 9 11 13 16 17 19 20 20
3 5 8 7 5 6 12 14 14 17 17 18 18 18 15 15 13 11 9 9 10 13 13 11 10 12 13 10 10 9 6 5 5 4 5 6 9 13 15 16 16 17 19 20
5 7 10 12 13 16 18 18 12 16 17 16 20 17 13 10 8 6 9 10 11 14 12 11 14 14 13 10 10 8 6 6 4 4 4 6 10 13 13 15 16 18 18 20
10 13 13 13 14 16 17 17 13 13 17 19 17 15 12 12 12 11 12 12 13 15 14 13 15 14 14 13 11 9 8 6 6 5 4 7 11 12 14 15 15 16 18 20
Wind_Direction
264 257 165 230 204 197 210 218 213 219 251 276 304 312 295 274 318 331 321 310 295 289 276 280 267 230 237 241 255 255 250 245 242 240 238 236 236 234 237 237 239 240 236 233
296 258 238 266 241 236 219 225 246 262 280 279 274 271 315 302 316 312 301 295 296 303 299 266 263 245 240 249 256 252 246 242 242 240 236 237 238 236 235 236 238 242 243 240
246 59 35 293 237 216 217 219 217 228 240 267 269 290 270 286 283 270 279 287 305 292 291 285 265 241 242 248 242 241 240 243 241 238 237 239 240 242 241 242 243 241 242 241
207 153 230 234 205 172 224 231 216 248 248 227 254 270 269 261 243 257 264 282 293 296 283 270 252 244 245 239 237 236 240 240 239 240 240 240 239 240 244 245 248 249 248 248
169 208 292 309 215 174 175 265 213 226 245 226 231 118 287 255 208 225 250 265 273 285 286 270 253 250 241 240 242 240 242 240 237 235 238 238 240 243 245 242 244 245 250 250
157 200 223 233 105 87 127 275 242 204 233 216 140 182 249 188 187 231 253 265 272 279 270 260 254 248 241 243 241 242 245 245 241 238 238 239 245 248 253 253 257 256 257 255
209 235 271 240 159 129 142 242 93 172 192 151 174 202 214 192 223 231 247 261 263 264 257 260 256 240 240 246 245 248 249 247 243 240 241 246 252 255 259 260 260 259 258 264
193 229 262 185 79 178 207 347 177 202 201 192 213 233 252 252 252 256 258 267 264 252 256 268 254 238 240 243 256 253 247 237 241 242 243 247 253 262 266 268 263 265 264 267
186 205 221 186 192 225 352 340 339 345 295 261 253 255 266 264 258 257 261 270 273 258 252 261 258 240 237 253 258 251 238 237 243 243 244 246 252 260 267 271 263 267 261 258
145 224 212 205 235 231 223 247 277 263 254 258 264 269 271 269 262 261 265 271 278 269 252 249 259 255 245 258 261 250 240 239 243 242 243 244 247 259 263 264 261 259 264 263
246 262 312 226 214 229 254 249 257 254 235 240 256 262 256 263 258 263 267 272 270 267 264 260 257 258 260 254 255 246 242 240 239 241 238 242 253 257 257 265 266 261 263 267
233 184 213 235 181 203 242 259 260 256 261 252 244 257 271 283 285 274 265 265 269 273 275 274 267 263 268 270 252 242 233 232 233 228 232 238 251 267 271 275 278 276 274 272
267 264 272 268 273 282 290 275 273 270 263 275 275 279 282 285 285 284 287 289 289 280 274 275 279 281 282 272 258 240 230 230 221 219 230 244 256 260 271 286 286 284 283 282
334 355 310 279 262 260 260 280 293 292 286 278 282 289 282 276 282 278 275 285 281 275 273 279 281 281 281 276 255 230 226 225 217 223 235 246 256 263 276 279 286 298 296 293
283 268 257 269 274 271 279 287 282 278 282 283 283 275 279 282 282 284 287 285 287 283 279 286 284 284 287 270 234 226 227 229 237 246 251 257 266 271 274 277 280 285 295 306
260 268 275 270 272 272 271 277 275 277 275 277 273 274 281 285 289 294 296 297 291 281 282 288 287 286 274 245 226 224 225 228 231 237 254 265 270 271 276 285 289 288 296 305
259 261 257 254 253 256 254 261 271 292 310 312 302 306 309 303 296 290 292 295 295 285 287 286 284 276 253 238 229 223 221 224 234 243 249 260 269 287 299 308 304 305 307 312
244 253 256 266 276 281 281 279 284 289 287 292 295 296 291 287 279 286 290 294 294 282 273 279 280 255 236 226 217 214 214 219 228 239 250 262 281 283 285 289 300 304 305 313
232 241 250 259 285 328 353 335 318 315 310 306 305 293 290 287 286 287 289 285 279 261 273 271 260 234 220 204 207 214 212 218 232 243 261 273 272 281 285 292 297 295 296 300
75 63 58 40 11 343 315 302 302 295 290 294 293 289 284 283 288 289 288 272 272 271 277 262 229 212 207 204 200 207 214 227 239 252 265 270 272 281 294 307 309 308 313 313
61 73 78 78 326 302 291 295 299 292 300 299 292 283 280 284 287 283 278 262 271 267 245 222 214 197 204 205 201 208 212 226 242 253 261 262 275 296 302 312 312 316 314 312
111 55 353 329 316 304 313 315 303 292 285 280 278 284 286 286 289 287 277 257 284 227 209 212 199 204 208 201 197 209 215 226 243 249 266 293 293 303 312 320 325 318 314 311
160 176 246 276 306 300 306 308 308 307 307 305 301 295 288 287 292 287 282 249 231 212 215 213 208 206 201 195 200 211 213 221 236 259 277 280 295 314 322 325 319 315 319 316
133 57 314 313 310 302 302 305 310 306 302 301 300 297 298 299 301 290 275 250 231 218 208 212 209 203 196 208 217 207 198 212 233 254 279 296 310 323 322 317 314 317 317 315
240 278 286 287 285 271 277 287 293 293 293 294 299 306 298 294 281 285 255 246 227 201 203 217 201 200 208 213 215 210 199 214 232 262 290 313 323 320 315 316 313 316 318 317
247 271 272 269 265 274 276 275 264 279 288 288 289 288 278 267 261 253 235 231 219 206 211 206 204 212 216 221 223 215 214 225 238 251 285 311 311 309 312 312 315 321 324 325
279 275 278 278 276 272 270 274 275 274 279 275 274 284 265 253 259 226 232 223 209 210 215 215 216 217 226 229 228 225 227 224 233 248 277 300 300 302 307 310 314 322 327 330